Temperature
18 19 19 19 19 18 17 15 15 16 16 15 14 15 16 17 17 16 16 16 16 16 15 15 14 14 13 13 12 12 11 11 11 11 10 10 10 10 10 11 11 11 11 11
19 19 20 20 19 18 17 17 16 16 16 16 17 17 16 17 17 17 16 16 16 16 15 15 14 14 14 13 13 12 12 11 11 11 10 10 10 10 10 10 10 10 11 11
18 19 20 19 19 18 18 18 17 16 16 16 15 15 17 17 17 17 17 16 16 16 15 15 14 14 14 13 13 12 12 11 11 11 10 10 10 10 10 10 10 10 10 10
16 19 19 19 20 20 19 19 18 18 17 16 17 18 18 18 17 17 17 16 16 16 15 15 14 14 14 13 13 12 12 11 11 10 10 10 10 10 10 10 10 10 10 10
15 18 18 20 21 21 20 19 19 17 17 18 18 17 17 18 18 18 17 17 16 16 15 15 15 14 14 13 13 12 12 11 11 10 10 10 10 10 10 10 9 9 9 10
16 18 19 20 21 21 20 19 20 19 17 18 17 14 15 18 18 18 17 17 16 16 16 15 15 14 14 13 13 12 12 11 11 11 10 10 10 10 10 9 9 9 9 9
16 17 17 19 21 21 19 19 21 21 20 19 17 18 20 19 18 18 17 17 17 16 16 15 15 14 14 13 13 12 12 11 11 11 10 10 10 10 10 10 9 9 9 9
14 17 18 20 20 18 19 22 22 22 22 21 21 20 20 19 19 18 17 17 17 16 16 16 15 15 14 14 13 12 12 12 11 11 11 10 10 10 10 10 10 9 9 9
15 17 20 22 22 24 23 23 23 22 22 22 21 20 20 19 19 18 18 17 17 17 16 16 15 15 15 14 14 13 12 12 12 11 11 11 11 10 10 10 10 10 10 10
18 19 21 23 23 23 23 23 23 22 22 22 21 21 20 19 19 18 18 17 17 17 17 16 16 16 15 15 14 13 13 12 12 12 11 11 11 11 10 10 10 10 10 10
19 19 22 23 24 24 24 23 23 22 22 22 21 21 20 19 19 18 18 18 17 17 17 17 16 16 16 15 14 14 13 13 12 12 12 11 11 11 11 10 10 10 10 10
17 18 18 21 22 23 23 23 22 22 22 22 21 21 21 20 19 19 18 18 18 17 17 17 17 17 16 16 15 14 14 13 13 13 12 12 11 11 11 11 11 10 10 10
15 18 19 20 21 21 21 22 22 22 21 21 21 21 21 20 20 19 19 18 18 18 18 17 17 17 17 16 15 15 14 14 13 13 13 12 12 12 11 11 11 11 11 10
16 18 18 18 18 19 20 21 21 21 21 21 20 20 20 20 20 19 19 19 18 18 18 17 17 17 17 16 16 15 15 14 14 13 13 13 12 12 12 11 11 11 11 11
14 15 15 16 17 18 19 19 20 20 19 20 20 20 20 20 20 19 19 19 18 18 18 17 17 17 17 17 16 16 15 15 14 14 13 13 12 12 12 12 12 11 11 11
12 14 15 15 15 16 16 16 16 17 17 18 18 19 19 19 19 20 19 19 19 18 18 18 18 17 17 17 16 16 16 15 14 14 13 13 13 12 12 12 12 12 12 11
12 11 12 12 12 13 13 13 14 14 15 16 17 17 18 19 19 19 19 19 19 19 18 18 18 18 17 17 17 16 16 15 15 14 14 13 13 13 13 12 12 12 12 12
10 10 10 10 11 11 12 12 13 13 14 15 15 16 17 18 18 19 19 19 19 19 18 18 18 18 17 17 16 16 16 15 15 15 14 14 13 13 13 13 13 12 12 12
10 10 10 10 10 10 10 11 11 12 13 13 14 15 16 16 17 18 19 19 19 19 19 19 18 18 17 17 16 16 16 16 15 15 14 14 14 13 13 13 13 13 12 12
9 9 9 9 9 9 9 9 10 11 11 11 12 13 14 15 16 17 18 18 18 19 19 19 18 18 17 17 16 16 16 15 15 15 14 14 14 13 13 13 13 13 13 12
8 8 7 8 8 8 8 8 8 9 9 10 10 10 11 13 14 15 15 16 17 17 18 18 18 18 17 17 17 16 16 15 15 15 15 14 14 13 13 13 13 13 13 13
7 7 7 7 7 7 7 7 7 8 8 8 8 9 10 11 12 13 13 13 15 16 16 17 18 18 17 17 17 16 16 16 15 15 15 14 14 14 13 13 13 13 13 13
6 6 6 6 6 6 6 6 6 6 7 7 7 7 7 8 9 9 10 12 13 14 15 16 17 17 17 17 17 16 16 16 15 15 15 15 14 14 14 13 13 13 13 13
6 6 6 6 6 6 6 6 6 6 6 6 6 6 6 7 7 8 8 10 11 12 13 15 16 16 16 16 16 16 16 16 15 15 15 15 14 14 14 13 13 13 13 13
6 6 6 6 6 6 6 5 5 5 5 6 6 6 5 5 5 6 7 8 9 10 11 13 14 15 15 15 16 16 16 16 15 15 15 14 14 14 14 13 13 13 13 13
6 6 6 6 6 6 6 5 5 5 5 5 5 5 5 5 5 5 6 6 7 8 9 10 11 12 13 13 14 14 15 15 15 15 14 14 14 14 13 13 13 13 13 13
7 6 6 6 6 6 6 5 5 5 5 4 4 4 4 4 4 4 4 5 5 6 7 8 9 9 10 11 11 12 13 13 14 14 14 13 13 13 13 13 13 13 12 12
Wind_Speed
6 7 6 6 7 8 7 8 7 7 7 9 13 13 11 9 8 6 5 4 3 4 4 4 4 4 3 1 0 2 3 4 4 4 5 6 6 6 7 7 7 6 7 7
3 6 6 5 8 9 8 7 8 7 8 8 8 8 8 9 8 7 6 5 4 2 2 3 5 4 3 2 1 2 3 2 2 4 5 5 6 6 6 6 6 6 6 7
3 2 1 6 8 9 7 7 8 9 8 4 6 10 12 11 9 8 7 6 4 2 2 3 4 5 4 3 2 3 2 1 2 3 4 5 5 6 6 5 5 6 6 6
1 3 3 8 5 6 7 7 9 8 7 11 11 12 10 10 10 9 8 7 5 3 2 2 2 3 3 3 3 3 2 1 1 2 3 4 5 5 5 4 4 4 5 6
3 1 6 7 4 2 2 6 6 9 8 10 6 5 4 8 10 10 9 7 6 4 4 2 2 3 4 4 3 3 2 2 1 0 2 3 4 5 4 4 4 4 4 6
3 0 4 6 3 3 3 5 6 7 10 9 9 5 7 9 9 9 8 7 6 5 4 3 2 4 6 5 4 3 4 3 2 2 1 2 3 3 3 3 4 4 4 5
3 3 7 7 2 4 1 7 5 6 9 12 12 10 7 8 9 9 9 8 7 6 5 4 4 6 6 5 5 6 5 3 3 3 3 2 2 3 3 4 4 5 5 5
5 2 7 5 6 6 9 5 4 5 8 12 11 8 6 8 10 10 9 8 7 6 5 5 5 7 7 7 7 6 5 4 3 4 3 1 1 2 3 4 4 5 4 5
8 8 7 7 10 8 6 5 4 5 7 10 9 9 9 9 10 10 10 9 7 7 6 5 6 7 8 7 7 6 5 5 5 4 3 1 1 0 2 3 3 3 3 3
3 6 6 7 8 7 6 7 5 5 7 10 10 11 11 10 10 10 10 9 8 7 7 6 7 8 8 8 8 7 6 6 5 4 4 3 2 1 1 0 1 2 2 3
3 7 7 6 4 7 7 8 7 5 6 10 11 11 11 11 11 10 10 9 8 8 9 9 8 8 8 8 8 7 6 6 5 5 5 4 3 2 3 3 3 2 2 2
5 6 3 4 6 5 4 6 8 6 5 6 10 12 12 12 11 11 11 9 9 10 10 9 8 9 8 8 8 7 5 5 5 5 5 4 3 2 3 4 5 4 4 3
5 7 3 5 9 11 7 7 6 5 6 6 7 9 11 11 11 11 11 11 11 12 11 10 9 9 9 9 8 8 6 5 4 5 5 5 4 4 4 4 5 6 6 5
9 8 7 9 9 12 11 11 9 7 6 5 5 6 8 9 10 11 13 13 13 12 11 10 10 10 9 9 9 8 7 7 6 6 6 6 6 5 5 4 3 4 5 7
10 9 6 6 10 14 14 13 13 13 12 10 6 5 7 9 11 13 13 12 11 11 11 11 11 11 9 9 10 9 7 5 5 5 5 6 5 5 5 5 5 4 3 3
6 7 10 13 15 15 15 15 14 14 13 11 10 9 8 10 11 12 11 11 11 13 13 12 13 12 10 10 10 8 7 10 8 6 5 5 5 5 5 5 5 5 5 5
9 11 12 13 14 14 14 13 12 12 13 14 14 13 11 9 9 9 10 12 14 15 15 14 15 12 11 11 11 8 7 7 10 6 6 6 5 6 6 6 6 6 6 7
7 7 7 8 9 11 13 13 14 15 14 15 15 14 12 10 10 11 12 11 11 12 12 13 13 11 12 12 11 9 8 7 6 7 6 6 6 6 6 6 7 7 6 5
8 9 9 10 10 9 10 12 13 13 15 16 17 16 14 13 12 12 10 9 11 14 13 13 16 14 12 14 13 9 9 8 7 7 7 8 7 6 6 6 6 7 6 6
8 8 9 9 10 10 10 11 12 13 14 16 16 17 18 18 17 14 10 10 11 11 11 13 14 13 13 14 15 10 11 10 9 8 7 7 7 7 7 7 7 7 7 7
6 7 7 8 8 9 9 10 12 13 14 14 15 16 16 17 17 15 11 9 10 10 10 13 13 12 12 13 16 11 11 11 10 9 9 8 8 8 7 7 7 7 7 8
4 4 5 6 7 8 8 8 9 12 13 14 15 15 16 17 18 16 12 10 14 16 11 9 10 13 16 16 12 12 12 12 11 9 9 9 8 8 8 8 7 7 7 8
2 3 4 4 5 6 7 8 9 10 11 12 13 14 14 13 11 13 15 15 16 21 14 9 12 16 20 15 11 13 13 13 12 11 10 10 9 9 9 9 8 7 7 7
3 3 4 4 4 5 7 8 8 8 9 9 9 11 12 12 11 10 11 18 24 24 14 14 15 14 16 12 11 12 13 12 12 11 11 10 9 9 8 8 8 7 7 8
5 4 4 5 4 4 5 6 7 7 8 8 9 10 9 7 9 12 13 15 23 22 15 18 21 15 9 7 9 11 11 11 11 11 11 10 9 9 9 9 8 8 7 7
5 5 6 6 5 5 4 4 4 5 6 7 8 8 8 8 9 10 11 13 16 20 16 14 16 15 9 6 6 7 8 10 11 10 10 10 10 10 9 9 11 9 8 8
6 5 4 5 5 5 5 4 4 5 5 5 7 8 9 9 9 10 11 11 12 12 13 13 14 14 13 11 8 6 5 5 6 8 9 9 9 9 10 11 9 8 8 8
Wind_Direction
222 212 182 191 198 195 186 192 204 236 231 232 212 207 209 214 223 233 245 241 231 244 260 257 249 251 253 262 25 90 62 35 13 4 7 8 7 6 9 13 18 10 11 10
281 233 208 232 228 211 216 212 219 234 256 244 196 188 203 211 214 222 226 218 212 238 270 253 239 236 233 209 181 129 94 50 13 13 11 7 4 5 8 6 3 8 10 7
309 319 94 278 243 211 215 210 193 215 234 177 166 194 203 207 208 210 209 205 201 218 250 245 232 216 203 196 164 128 111 75 25 15 12 1 1 3 360 356 359 3 3 4
35 50 245 257 260 197 209 232 210 210 204 181 194 202 203 196 195 199 197 194 195 193 214 236 225 191 176 157 140 131 122 117 28 17 7 358 0 354 345 342 349 354 359 360
90 321 287 291 276 173 197 277 228 209 207 197 179 152 238 215 192 190 193 192 194 190 188 194 190 164 146 139 136 133 149 182 213 12 1 355 352 342 334 338 345 348 352 360
105 130 264 264 265 122 89 289 265 199 196 178 142 172 243 220 195 186 183 180 180 174 170 176 175 142 139 151 158 173 195 206 209 208 251 318 322 323 326 336 344 354 6 8
169 233 266 258 168 83 103 254 269 199 188 173 182 203 217 188 185 182 179 184 174 165 181 200 174 144 151 171 192 204 203 202 210 225 239 265 317 329 341 359 8 10 14 12
156 198 268 221 145 183 221 241 259 209 192 190 206 210 199 182 180 178 180 183 175 175 202 212 183 160 170 197 210 206 203 209 222 233 246 210 2 349 2 16 19 10 10 8
184 213 241 209 205 219 191 217 237 212 213 194 192 191 189 185 181 183 186 189 187 188 205 216 197 180 187 209 204 201 207 223 233 235 238 217 189 336 10 18 23 5 7 3
226 267 266 249 244 254 232 241 249 221 205 183 190 190 188 186 188 190 194 195 194 192 204 219 211 204 205 204 196 196 211 228 230 226 233 234 226 202 167 336 352 350 352 347
275 295 325 336 289 260 254 265 269 249 208 196 192 193 192 192 195 197 198 198 192 197 208 218 214 215 215 204 190 197 215 228 226 216 214 218 224 226 216 225 210 215 252 282
252 282 261 295 338 348 303 281 269 257 240 214 197 199 197 200 201 200 201 198 198 204 209 215 212 216 217 205 193 194 211 223 219 210 209 208 213 249 273 246 245 234 229 232
294 293 286 329 4 5 350 327 306 276 255 241 222 207 201 204 206 204 204 201 203 207 210 211 211 217 217 203 196 196 204 212 213 206 203 205 206 213 246 275 263 263 259 258
352 12 28 10 353 355 357 354 356 355 335 299 254 224 210 211 209 207 210 210 209 208 209 209 210 220 216 198 196 201 204 208 202 204 205 205 208 211 211 217 241 265 261 252
9 26 22 351 6 13 10 10 11 2 349 338 318 273 235 219 217 218 218 212 207 209 212 209 213 223 211 194 196 200 199 202 203 205 207 208 209 209 210 213 217 226 240 259
355 21 27 26 20 13 11 10 4 353 344 335 328 311 279 247 234 227 218 204 202 213 215 211 217 220 201 192 195 198 202 206 197 201 209 212 210 207 212 213 215 212 218 221
35 27 19 18 12 8 7 1 355 347 343 340 331 319 308 287 262 246 231 216 213 216 212 210 216 213 197 194 193 198 198 205 206 200 208 212 213 213 214 211 212 216 221 214
41 35 25 14 7 3 1 360 357 354 350 341 337 335 329 313 285 263 248 231 224 226 220 214 213 204 198 196 197 196 194 197 197 203 210 213 218 218 214 213 214 217 222 215
26 23 17 12 8 4 1 359 355 351 350 350 348 344 337 328 312 290 269 243 228 231 231 220 212 203 202 202 195 193 194 197 201 207 210 218 221 220 215 213 215 213 208 200
21 16 12 7 5 4 1 357 354 355 355 354 353 351 348 343 336 324 296 260 245 242 232 217 210 208 206 204 195 194 196 199 201 205 207 211 215 219 218 217 215 213 208 205
18 12 8 4 360 357 355 352 354 353 353 355 356 351 344 340 341 340 330 307 295 284 260 228 215 211 206 202 196 197 199 201 203 204 206 209 214 218 220 220 218 215 212 210
4 359 356 354 353 348 344 346 349 350 351 352 354 353 350 347 346 344 338 331 324 318 296 254 232 217 207 201 198 198 202 205 206 205 206 208 210 215 218 220 221 220 216 212
309 314 325 334 335 330 336 345 347 347 347 346 347 349 347 341 343 344 338 335 335 330 320 283 254 231 213 204 202 202 204 206 208 209 210 210 211 212 214 217 218 218 216 214
269 282 291 303 327 339 336 331 334 336 335 334 337 339 339 339 339 339 331 332 340 340 335 321 300 263 228 214 207 207 207 208 209 210 210 209 209 211 212 213 215 216 216 215
262 270 278 294 303 296 294 309 323 329 332 332 330 330 333 331 327 329 332 338 345 348 344 340 337 319 272 239 218 213 211 211 210 207 207 207 208 211 213 213 213 213 213 212
255 255 255 254 253 257 265 284 301 309 318 324 327 326 327 327 326 330 335 338 344 350 352 350 348 342 331 308 264 236 223 217 214 212 210 209 210 210 213 214 214 212 210 210
269 264 264 271 267 253 249 254 267 281 290 300 310 314 319 323 326 330 333 338 342 347 350 352 353 353 347 341 328 305 273 245 226 217 214 213 212 213 215 214 212 209 205 204
Height
1548 1544 1544 1546 1548 1550 1554 1558 1562 1555 1550 1545 1542 1543 1544 1545 1545 1545 1545 1544 1543 1542 1540 1538 1536 1534 1532 1530 1528 1525 1522 1519 1516 1513 1510 1507 1504 1501 1498 1495 1492 1489 1487 1485
1546 1542 1542 1544 1543 1545 1547 1547 1548 1546 1544 1534 1535 1538 1541 1542 1542 1543 1543 1542 1542 1540 1539 1537 1535 1534 1532 1530 1528 1525 1522 1519 1517 1514 1511 1508 1505 1502 1499 1496 1493 1491 1488 1486
1555 1545 1545 1551 1540 1540 1540 1537 1539 1543 1538 1533 1535 1536 1537 1538 1539 1540 1540 1541 1540 1539 1538 1536 1535 1533 1531 1530 1528 1525 1523 1520 1517 1515 1511 1509 1506 1503 1500 1497 1495 1492 1489 1487
1557 1553 1559 1544 1528 1528 1531 1530 1529 1529 1528 1529 1529 1531 1533 1535 1536 1537 1538 1539 1538 1538 1537 1535 1534 1532 1531 1529 1528 1525 1523 1520 1518 1515 1512 1510 1507 1504 1501 1499 1496 1493 1491 1488
1562 1559 1553 1537 1527 1527 1530 1530 1524 1525 1525 1526 1528 1531 1532 1532 1533 1534 1536 1536 1537 1536 1536 1535 1533 1532 1531 1529 1527 1525 1523 1521 1519 1516 1513 1511 1508 1505 1502 1500 1497 1494 1492 1489
1560 1557 1555 1539 1526 1525 1529 1532 1521 1520 1522 1524 1528 1535 1530 1528 1530 1532 1533 1534 1535 1535 1535 1534 1533 1531 1530 1529 1527 1525 1523 1521 1519 1517 1514 1512 1509 1506 1503 1501 1498 1496 1493 1490
1558 1558 1549 1530 1525 1527 1540 1534 1519 1518 1518 1521 1522 1523 1523 1525 1527 1529 1531 1532 1533 1533 1533 1533 1532 1531 1530 1528 1527 1525 1523 1521 1520 1517 1515 1513 1510 1507 1505 1502 1499 1497 1494 1491
1559 1558 1549 1523 1525 1529 1526 1518 1517 1517 1516 1517 1517 1519 1521 1522 1524 1526 1528 1530 1531 1531 1531 1531 1530 1530 1529 1527 1526 1525 1523 1522 1520 1518 1516 1514 1511 1509 1506 1503 1500 1498 1495 1493
1541 1538 1523 1519 1518 1517 1517 1517 1516 1515 1515 1515 1516 1517 1518 1520 1522 1524 1526 1527 1528 1529 1529 1529 1529 1528 1527 1526 1525 1524 1523 1522 1520 1519 1517 1515 1512 1510 1507 1504 1501 1499 1496 1494
1528 1522 1518 1516 1516 1516 1516 1516 1515 1514 1513 1513 1513 1514 1515 1517 1519 1521 1523 1524 1525 1526 1527 1527 1527 1526 1525 1525 1524 1523 1522 1521 1520 1518 1517 1515 1513 1511 1508 1505 1503 1500 1497 1495
1524 1520 1517 1515 1514 1514 1514 1514 1513 1512 1512 1511 1511 1512 1513 1514 1516 1518 1519 1521 1522 1523 1524 1524 1524 1524 1523 1523 1522 1521 1520 1519 1518 1517 1516 1515 1513 1511 1509 1507 1504 1502 1499 1497
1527 1521 1520 1517 1515 1514 1513 1512 1511 1511 1510 1509 1509 1509 1510 1511 1512 1514 1515 1517 1518 1519 1520 1521 1521 1521 1521 1520 1520 1519 1518 1517 1516 1515 1515 1514 1513 1511 1510 1507 1505 1503 1501 1498
1524 1519 1519 1518 1515 1513 1512 1511 1510 1509 1508 1508 1507 1507 1507 1508 1509 1510 1511 1513 1514 1515 1516 1517 1517 1517 1517 1517 1517 1516 1515 1514 1514 1513 1513 1512 1511 1510 1509 1508 1506 1504 1502 1500
1521 1518 1517 1516 1515 1513 1511 1510 1508 1507 1507 1506 1505 1505 1505 1505 1505 1506 1506 1507 1509 1510 1511 1512 1513 1513 1514 1514 1513 1513 1512 1511 1511 1510 1510 1510 1509 1509 1508 1507 1506 1504 1502 1501
1522 1520 1520 1518 1515 1512 1510 1508 1506 1505 1504 1503 1502 1502 1501 1501 1500 1500 1501 1503 1504 1504 1505 1506 1507 1508 1509 1509 1509 1509 1508 1508 1507 1507 1507 1507 1507 1507 1506 1505 1504 1503 1502 1501
1523 1521 1518 1516 1513 1512 1509 1507 1505 1504 1502 1501 1499 1498 1497 1496 1495 1495 1496 1497 1497 1497 1499 1500 1501 1502 1504 1504 1504 1504 1504 1504 1504 1503 1504 1504 1503 1503 1503 1503 1502 1502 1501 1500
1520 1518 1516 1515 1514 1513 1511 1509 1507 1504 1501 1499 1496 1494 1492 1490 1489 1489 1489 1490 1490 1490 1491 1493 1494 1496 1497 1498 1499 1499 1499 1499 1499 1499 1499 1499 1499 1499 1499 1499 1499 1499 1499 1499
1524 1522 1521 1519 1517 1514 1511 1509 1506 1503 1500 1497 1494 1491 1488 1486 1483 1482 1482 1482 1482 1482 1483 1485 1487 1489 1490 1491 1492 1493 1493 1494 1494 1493 1494 1494 1494 1495 1495 1495 1495 1495 1496 1496
1524 1523 1521 1519 1517 1515 1512 1508 1505 1502 1499 1495 1491 1487 1485 1482 1479 1477 1475 1475 1474 1474 1475 1477 1479 1480 1481 1483 1485 1486 1487 1487 1488 1488 1488 1489 1489 1490 1490 1490 1491 1491 1492 1492
1524 1523 1521 1519 1517 1514 1511 1508 1505 1501 1497 1493 1489 1485 1481 1477 1474 1471 1468 1467 1467 1467 1468 1469 1470 1471 1473 1475 1476 1477 1479 1480 1481 1481 1482 1482 1483 1484 1484 1485 1486 1486 1487 1487
1523 1522 1520 1518 1516 1513 1511 1507 1504 1500 1496 1492 1488 1483 1479 1475 1471 1467 1463 1461 1460 1460 1460 1460 1461 1462 1464 1466 1468 1469 1470 1471 1472 1473 1474 1475 1476 1477 1478 1479 1480 1481 1481 1482
1521 1520 1518 1516 1514 1511 1509 1506 1502 1499 1495 1490 1486 1482 1477 1472 1468 1464 1461 1458 1454 1453 1451 1451 1452 1453 1455 1457 1458 1459 1461 1463 1464 1465 1466 1467 1468 1469 1471 1472 1473 1474 1475 1476
1519 1517 1516 1514 1512 1509 1507 1504 1500 1497 1493 1489 1485 1481 1477 1473 1468 1463 1457 1453 1450 1446 1444 1443 1443 1444 1446 1448 1448 1450 1452 1453 1455 1457 1458 1459 1461 1462 1463 1464 1466 1467 1469 1470
1516 1515 1513 1511 1509 1507 1504 1501 1498 1495 1492 1488 1485 1480 1475 1470 1466 1462 1458 1453 1448 1443 1439 1437 1435 1435 1437 1438 1439 1441 1443 1444 1446 1448 1450 1451 1453 1454 1455 1456 1458 1460 1461 1463
1512 1511 1510 1509 1507 1504 1502 1499 1496 1493 1489 1486 1482 1478 1474 1470 1465 1460 1455 1451 1446 1440 1436 1432 1429 1428 1428 1429 1430 1432 1434 1436 1438 1439 1441 1443 1444 1446 1447 1448 1450 1452 1453 1455
1509 1508 1507 1505 1504 1502 1499 1497 1494 1491 1487 1483 1479 1476 1472 1467 1463 1458 1453 1449 1444 1439 1434 1429 1425 1422 1421 1421 1422 1424 1425 1427 1429 1431 1432 1434 1436 1437 1439 1440 1442 1444 1445 1447
1505 1504 1503 1501 1500 1498 1496 1494 1491 1488 1485 1481 1477 1474 1470 1465 1461 1456 1451 1447 1442 1437 1433 1429 1425 1421 1417 1416 1415 1416 1417 1419 1420 1422 1424 1426 1427 1429 1431 1432 1434 1436 1438 1439